Simultaneous Nadir Overpasses (SNOs) Predictions

Prediction of SNOs between METOP-A and NOAA-19 Satellite Orbit:

Table of predicted SNOs for the next 14.0 days since TLE Epoch: 3/22/2013
Index Date (METOP-A) Time (METOP-A) Lat,Lon (METOP-A) SZA (METOP-A ) Date (NOAA-19) Time (NOAA-19) Lat,Lon (NOAA-19) SZA (NOAA-19 ) Distance(km) Time Diff (sec)
1 03/30/2013 09:07:40 -73.44,-143.93 110.37 03/30/2013 09:06:28 -73.42,-143.98 110.38 2.62 72
2 03/30/2013 09:58:20 73.41, 23.34 69.59 03/30/2013 09:57:28 73.42, 23.27 69.62 2.74 52
3 03/30/2013 10:49:03 -73.37,-169.42 110.46 03/30/2013 10:48:32 -73.39,-169.42 110.44 1.59 31
4 03/30/2013 11:39:43 73.34, -2.14 69.51 03/30/2013 11:39:31 73.34, -2.06 69.50 2.82 12
5 03/30/2013 12:30:25 -73.36, 165.21 110.50 03/30/2013 12:30:36 -73.35, 165.13 110.50 2.36 11
6
